• In Latvia
  • List of Countries
  • For 7 days
  • Water Temperature
  • Satellite Maps
  • Weather Map
  • Weather Widgets
  • user-avatar
    Login

    Hourly Weather Stolniceni

    Today, 22 August, Wednesday

    Time Temperature Precipitation Wind Pressure Humidity
    00:00 +24°C° 0.1 mm 3 mps 747 mmHg 66%
    01:00 +22°C° 0.1 mm 3 mps 747 mmHg 72%
    02:00 +21°C° 0.1 mm 3 mps 748 mmHg 78%
    03:00 +21°C° 0 mm 3 mps 748 mmHg 80%
    04:00 +20°C° 0 mm 3 mps 748 mmHg 82%
    05:00 +20°C° 0 mm 3 mps 748 mmHg 84%
    06:00 +21°C° 0 mm 3 mps 748 mmHg 77%
    07:00 +22°C° 0 mm 3 mps 749 mmHg 70%
    08:00 +25°C° 0 mm 4 mps 749 mmHg 64%
    09:00 +26°C° 0 mm 4 mps 749 mmHg 57%
    10:00 +28°C° 0 mm 4 mps 749 mmHg 50%
    11:00 +29°C° 0 mm 5 mps 750 mmHg 43%
    12:00 +30°C° 0 mm 5 mps 749 mmHg 41%
    13:00 +32°C° 0 mm 4 mps 749 mmHg 39%
    14:00 +32°C° 0 mm 4 mps 749 mmHg 37%
    15:00 +32°C° 0 mm 4 mps 749 mmHg 37%
    16:00 +30°C° 0 mm 4 mps 749 mmHg 38%
    17:00 +30°C° 0 mm 4 mps 749 mmHg 38%
    18:00 +28°C° 0 mm 4 mps 749 mmHg 43%
    19:00 +26°C° 0 mm 3 mps 749 mmHg 47%
    20:00 +24°C° 0 mm 3 mps 749 mmHg 52%
    21:00 +22°C° 0 mm 3 mps 750 mmHg 54%
    22:00 +22°C° 0 mm 3 mps 750 mmHg 57%
    23:00 +21°C° 0 mm 3 mps 750 mmHg 59%

    Tomorrow, 23 August, Thursday

    Time Temperature Precipitation Wind Pressure Humidity
    00:00 +20°C° 0 mm 3 mps 750 mmHg 61%
    01:00 +20°C° 0 mm 3 mps 750 mmHg 62%
    02:00 +19°C° 0 mm 3 mps 750 mmHg 64%
    03:00 +19°C° 0 mm 2 mps 750 mmHg 64%
    04:00 +18°C° 0 mm 2 mps 750 mmHg 64%
    05:00 +18°C° 0 mm 2 mps 750 mmHg 64%
    06:00 +19°C° 0 mm 2 mps 750 mmHg 59%
    07:00 +21°C° 0 mm 3 mps 750 mmHg 54%
    08:00 +22°C° 0 mm 3 mps 750 mmHg 48%
    09:00 +25°C° 0 mm 3 mps 750 mmHg 45%
    10:00 +27°C° 0 mm 3 mps 750 mmHg 41%
    11:00 +28°C° 0 mm 3 mps 750 mmHg 37%
    12:00 +29°C° 0 mm 3 mps 749 mmHg 35%
    13:00 +30°C° 0 mm 3 mps 749 mmHg 33%
    14:00 +30°C° 0 mm 3 mps 749 mmHg 31%
    15:00 +30°C° 0 mm 3 mps 748 mmHg 30%
    16:00 +30°C° 0 mm 4 mps 748 mmHg 30%
    17:00 +30°C° 0 mm 4 mps 748 mmHg 30%
    18:00 +28°C° 0 mm 3 mps 748 mmHg 33%
    19:00 +26°C° 0 mm 3 mps 748 mmHg 36%
    20:00 +22°C° 0 mm 3 mps 748 mmHg 39%
    21:00 +21°C° 0 mm 3 mps 748 mmHg 40%
    22:00 +20°C° 0 mm 2 mps 748 mmHg 41%
    23:00 +20°C° 0 mm 2 mps 748 mmHg 42%

    Day after tomorrow, 24 August, Friday

    Time Temperature Precipitation Wind Pressure Humidity
    00:00 +19°C° 0 mm 2 mps 748 mmHg 42%
    01:00 +19°C° 0 mm 1 mps 748 mmHg 43%
    02:00 +19°C° 0 mm 1 mps 747 mmHg 43%
    03:00 +18°C° 0 mm 1 mps 747 mmHg 44%
    04:00 +18°C° 0 mm 1 mps 747 mmHg 44%
    05:00 +16°C° 0 mm 1 mps 747 mmHg 44%
    06:00 +19°C° 0 mm 1 mps 747 mmHg 42%
    07:00 +20°C° 0 mm 2 mps 747 mmHg 39%
    08:00 +23°C° 0 mm 2 mps 747 mmHg 37%
    09:00 +25°C° 0 mm 2 mps 747 mmHg 35%
    10:00 +27°C° 0 mm 3 mps 747 mmHg 33%
    11:00 +29°C° 0 mm 3 mps 746 mmHg 30%
    12:00 +29°C° 0 mm 3 mps 746 mmHg 28%
    13:00 +30°C° 0 mm 3 mps 746 mmHg 26%
    14:00 +31°C° 0 mm 3 mps 745 mmHg 24%
    15:00 +31°C° 0 mm 3 mps 745 mmHg 24%
    16:00 +31°C° 0 mm 3 mps 745 mmHg 23%
    17:00 +31°C° 0 mm 3 mps 744 mmHg 23%
    18:00 +28°C° 0 mm 3 mps 745 mmHg 26%
    19:00 +26°C° 0 mm 3 mps 745 mmHg 28%
    20:00 +23°C° 0 mm 2 mps 745 mmHg 31%
    21:00 +23°C° 0 mm 2 mps 745 mmHg 32%
    22:00 +21°C° 0 mm 2 mps 744 mmHg 32%
    23:00 +21°C° 0 mm 1 mps 744 mmHg 33%

    25 August, Saturday

    Time Temperature Precipitation Wind Pressure Humidity
    00:00 +20°C° 0 mm 1 mps 744 mmHg 34%
    01:00 +20°C° 0 mm 1 mps 744 mmHg 34%
    02:00 +19°C° 0 mm 1 mps 744 mmHg 35%
    03:00 +19°C° 0 mm 1 mps 743 mmHg 36%
    04:00 +18°C° 0 mm 1 mps 743 mmHg 36%
    05:00 +16°C° 0 mm 0 mps 743 mmHg 37%
    06:00 +20°C° 0 mm 1 mps 743 mmHg 35%
    07:00 +22°C° 0 mm 1 mps 743 mmHg 32%
    08:00 +25°C° 0 mm 2 mps 744 mmHg 29%
    09:00 +27°C° 0 mm 2 mps 743 mmHg 29%
    10:00 +29°C° 0 mm 3 mps 743 mmHg 28%
    11:00 +30°C° 0 mm 3 mps 743 mmHg 27%
    12:00 +32°C° 0 mm 4 mps 743 mmHg 27%
    13:00 +33°C° 0 mm 4 mps 742 mmHg 27%
    14:00 +34°C° 0 mm 4 mps 742 mmHg 27%
    15:00 +34°C° 0 mm 4 mps 742 mmHg 28%
    16:00 +33°C° 0 mm 4 mps 741 mmHg 30%
    17:00 +33°C° 0 mm 4 mps 741 mmHg 31%
    18:00 +30°C° 0 mm 3 mps 741 mmHg 37%
    19:00 +28°C° 0 mm 3 mps 741 mmHg 43%
    20:00 +25°C° 0 mm 3 mps 741 mmHg 49%
    21:00 +24°C° 0 mm 2 mps 741 mmHg 56%
    22:00 +23°C° 0 mm 2 mps 741 mmHg 62%
    23:00 +21°C° 0 mm 2 mps 741 mmHg 69%

    26 August, Sunday

    Time Temperature Precipitation Wind Pressure Humidity
    00:00 +20°C° 0 mm 2 mps 741 mmHg 73%
    01:00 +20°C° 0 mm 2 mps 741 mmHg 78%
    02:00 +20°C° 0 mm 1 mps 741 mmHg 82%
    03:00 +20°C° 0 mm 1 mps 741 mmHg 83%
    04:00 +20°C° 0 mm 1 mps 741 mmHg 85%
    05:00 +19°C° 0 mm 1 mps 741 mmHg 87%
    06:00 +20°C° 0 mm 2 mps 741 mmHg 78%
    07:00 +23°C° 0 mm 2 mps 741 mmHg 69%
    08:00 +25°C° 0 mm 2 mps 742 mmHg 60%
    09:00 +27°C° 0 mm 2 mps 741 mmHg 53%
    10:00 +29°C° 0 mm 2 mps 741 mmHg 45%
    11:00 +31°C° 0 mm 2 mps 741 mmHg 38%
    12:00 +32°C° 0 mm 2 mps 741 mmHg 34%
    13:00 +34°C° 0 mm 2 mps 741 mmHg 31%
    14:00 +34°C° 0 mm 1 mps 740 mmHg 27%
    15:00 +34°C° 0 mm 1 mps 740 mmHg 27%
    16:00 +33°C° 0 mm 1 mps 740 mmHg 26%
    17:00 +33°C° 0 mm 1 mps 740 mmHg 26%
    18:00 +31°C° 0 mm 1 mps 740 mmHg 30%
    19:00 +29°C° 0 mm 1 mps 740 mmHg 34%
    20:00 +27°C° 0 mm 1 mps 740 mmHg 39%
    21:00 +26°C° 0 mm 1 mps 740 mmHg 43%
    22:00 +25°C° 0 mm 1 mps 740 mmHg 47%
    23:00 +24°C° 0 mm 2 mps 740 mmHg 51%

    27 August, Monday

    Time Temperature Precipitation Wind Pressure Humidity
    00:00 +23°C° 0 mm 1 mps 740 mmHg 54%
    01:00 +23°C° 0 mm 1 mps 740 mmHg 56%
    02:00 +22°C° 0 mm 1 mps 740 mmHg 59%
    03:00 +21°C° 0 mm 1 mps 740 mmHg 62%
    04:00 +21°C° 0 mm 1 mps 741 mmHg 64%
    05:00 +20°C° 0 mm 1 mps 741 mmHg 67%
    06:00 +22°C° 0 mm 1 mps 741 mmHg 63%
    07:00 +24°C° 0 mm 2 mps 741 mmHg 58%
    08:00 +25°C° 0 mm 2 mps 742 mmHg 54%
    09:00 +27°C° 0 mm 2 mps 742 mmHg 49%
    10:00 +29°C° 0 mm 2 mps 742 mmHg 43%
    11:00 +31°C° 0 mm 2 mps 742 mmHg 38%
    12:00 +31°C° 0 mm 2 mps 742 mmHg 37%
    13:00 +32°C° 0 mm 2 mps 742 mmHg 35%
    14:00 +32°C° 0 mm 2 mps 742 mmHg 34%
    15:00 +31°C° 0 mm 3 mps 742 mmHg 39%
    16:00 +29°C° 0 mm 4 mps 742 mmHg 44%
    17:00 +28°C° 0 mm 5 mps 742 mmHg 49%
    18:00 +26°C° 0.4 mm 5 mps 742 mmHg 58%
    19:00 +23°C° 0.4 mm 6 mps 742 mmHg 66%
    20:00 +21°C° 0.4 mm 6 mps 743 mmHg 75%
    21:00 +20°C° 0.4 mm 6 mps 743 mmHg 78%
    22:00 +20°C° 0.4 mm 6 mps 743 mmHg 82%
    23:00 +19°C° 0.4 mm 6 mps 743 mmHg 85%
    Show more